Weather Service Report


652 
ASUS41 KAKQ 290815
RWRAKQ

REGIONAL WEATHER ROUNDUP
NATIONAL WEATHER SERVICE WAKEFIELD VA
400 AM EDT FRI MAY 29 2015

Note: "fair" indicates few or no clouds below 12,000 feet with no
significant weather and/or obstructions to visibility. * = Denotes
station may not report precipitation (e.g., rain,snow,etc.),
thunder or fog.

VAZ042-051-052>054-056-290900-
NORTHERN VIRGINIA
  
CITY           SKY/WX    TMP DP  RH WIND       PRES   REMARKS
WASH NATIONAL  MOCLDY    75  70  83 NE12      30.20S                  
DULLES         CLEAR     71  66  84 N7        30.20R                  
FORT BELVOIR   CLEAR     68  66  94 CALM      30.19R                  
QUANTICO       CLEAR     71  67  87 CALM      30.19S                  
FREDERICKSBRG* CLEAR     70  70 100 CALM      30.17F                  
STAFFORD*      FOG       64  63  97 CALM      30.22S VSB 1            
WARRENTON      FOG       65  65 100 CALM      30.19S VSB 1            
CULPEPER*      CLEAR     64  64  99 CALM      30.20R FOG              
MANASSAS*      CLEAR     66  64  94 CALM      30.19S                  
LEESBURG*      CLEAR     70  64  83 N6        30.22S                  
WINCHESTER     CLEAR     68  55  64 N3        30.22S                  
FRONT ROYAL*   FAIR      64  63  94 CALM      30.21S                  
LURAY*         FAIR      63  63 100 CALM      30.22S                  
$$

VAZ048-049-060>072-079>083-290900-
CENTRAL AND SOUTH CENTRAL VIRGINIA
  
CITY           SKY/WX    TMP DP  RH WIND       PRES   REMARKS
RICHMOND       PTCLDY    71  66  84 SE5       30.19F                  
CHESTERFIELD*  NOT AVBL                                               
PETERSBURG*    CLEAR     68  68 100 CALM      30.20S                  
HANOVER        CLEAR     67  66  97 SE3       30.20F                  
TAPPAHANNOCK*  CLEAR     70  65  83 S3        30.20S                  
QUINTON*       FAIR      69  66  89 S6        30.19F                  
CHARLOTTSVILLE CLEAR     64  63  96 CALM      30.20S                  
GORDONSVILLE*  FAIR      64  64 100 CALM      30.18S FOG              
ORANGE*        CLEAR     66  64  94 CALM      30.21R                  
LOUISA*        FOG       66  64  94 CALM      30.18S VSB 3/4          
BUMPASS*       FAIR      65  65  97 MISG      30.19S                  
FARMVILLE*     CLEAR     66  66 100 CALM      30.18S                  
CREWE*         FAIR      64  63  96 CALM      30.19S                  
FORT PICKETT*  FAIR     N/A N/A N/A S6        30.19F                  
CHASE CITY*    FAIR      66  66 100 CALM      30.19S                  
CLARKSVILLE*   FAIR      63  63 100 CALM      30.18F                  
SOUTH HILL*    PTCLDY    67  65  94 CALM      30.25S                  
LAWRENCEVILLE* FAIR      66  66 100 CALM      30.20S                  
EMPORIA*       CLEAR     64  63  94 CALM      30.22S                  
$$

VAZ088>098-290900-
SOUTHEAST VIRGINIA
  
CITY           SKY/WX    TMP DP  RH WIND       PRES   REMARKS
NORFOLK        CLOUDY    72  62  71 S7        30.21S                  
VIRGINIA BEACH MOCLDY    72  63  73 SW6       30.21S                  
NORFOLK NAVAL  MOCLDY    76  63  64 VRB5      30.23R                  
WEST POINT*    CLEAR     73  64  73 S6        30.21S                  
SALUDA*        PTSUNNY   70  65  84 SE5       30.20R                  
NEWPORT NEWS   MOCLDY    74  64  71 S6        30.21S                  
LANGLEY AFB    MOCLDY    71  64  78 S8        30.20S                  
FORT EUSTIS    PTCLDY    71  65  83 S6        30.19F                  
WILLIAMSBURG*  CLEAR     73  66  78 S3        30.21F                  
HR EXEC AP*    FAIR      68  63  83 S3        30.23S                  
FRANKLIN*      PTCLDY    68  63  83 S6        30.21S                  
WAKEFIELD      CLEAR     69  63  81 S3        30.20F                  
$$

VAZ020-022-025-037-045-290900-
WEST CENTRAL AND SOUTHWEST VIRGINIA
  
CITY           SKY/WX    TMP DP  RH WIND       PRES   REMARKS
STAUNTON*      PTCLDY    64  62  93 CALM      30.25S FOG              
WAYNESBORO*    FAIR      62  62  99 CALM      30.24S                  
HOT SPRINGS VA CLEAR     63  61  95 E5        30.30F                  
LYNCHBURG      CLEAR     63  63 100 CALM      30.22R                  
DANVILLE       CLEAR     64  62  93 NE3       30.19F                  
SOUTH BOSTON*  FAIR      62  61  95 CALM      30.19S                  
MARTINSVILLE   FOG       63  63 100 CALM      30.22S VSB 1            
ROANOKE        PTCLDY    67  64  90 NE5       30.22F                  
BLACKSBURG       N/A     62  61  98 CALM      30.26F FOG              
DUBLIN*        CLEAR     62  62 100 CALM      30.24F FOG              
MARION*        FOG       62  61  96 CALM      30.27F VSB<1/4          
HILLSVILLE*    NOT AVBL                                               
RICHLANDS*     FAIR      64  61  88 SE6       30.23S                  
WISE*          PTCLDY    61  59  94 CALM      30.23S                  
ABINGDON*      CLEAR     65  62  91 E3        30.21S                  
$$

MDZ021>025-VAZ099-100-290900-
SOUTHERN MARYLAND AND THE DELMARVA PENINSULA
  
CITY           SKY/WX    TMP DP  RH WIND       PRES   REMARKS
PATUXENT RIVER PTCLDY    68  66  93 CALM      30.19F                  
BAY BRIDGE APT TSTM     N/A N/A N/A CALM      30.22R                  
LEONARDTOWN    CLEAR     68  64  88 CALM      30.21S                  
DOVER          CLOUDY    72  72 100 N5        30.19S                  
GEORGETOWN     PTCLDY    68  62  81 CALM      30.22S                  
EASTON         MOCLDY    73  73 100 CALM      30.25S                  
CAMBRIDGE      PTCLDY    72  68  88 CALM      30.20S                  
SALISBURY      CLEAR     63  61  93 CALM      30.21F                  
OCEAN CITY     MOCLDY    66  63  90 VRB3      30.21F                  
WALLOPS ISLAND PTCLDY    65  64  97 S7        30.22F                  
ACCOMACK*      MOCLDY    70  66  88 S5        30.21F                  
$$

NCZ012>017-030>032-290900-
NORTH CENTRAL AND EASTERN NORTH CAROLINA
  
CITY           SKY/WX    TMP DP  RH WIND       PRES   REMARKS
ROANOKE RAPIDS FAIR      64  64 100 CALM      30.20S                  
RALEIGH        MOCLDY    70  66  87 CALM      30.20F                  
ELIZABETH CITY PTCLDY    67  64  90 S3        30.22S                  
AHOSKIE*       CLOUDY    67  63  87 CALM      30.21F                  
EDENTON*       CLEAR     67  63  86 CALM      30.22S                  
CURRITUCK*     MOCLDY    67  64  87 CALM      30.23S                  
KILL DEVIL HLS   N/A     67  63  87 CALM      30.22R                  
MANTEO         CLEAR     64  62  93 CALM      30.23S                  
CAPE HATTERAS  CLEAR     65  61  87 NW3       30.21F                  
TARBORO*       PTSUNNY   66  64  92 CALM      30.22S                  
GOLDSBORO      PTCLDY    65  63  92 CALM      30.19S                  
WASHINGTON       N/A     64  62  93 CALM      30.22S                  
GREENVILLE     MOCLDY    70  64  83 S3        30.22S                  
NEW BERN       CLEAR     60  57  89 CALM      30.22F                  
WILMINGTON     CLEAR     62  60  93 NE3       30.19F                  
$$

VAZ048-290900-
ELSEWHERE
  
CITY           SKY/WX    TMP DP  RH WIND       PRES   REMARKS
HARRISBURG PA  CLEAR     64  55  72 CALM      30.25R                  
BALTIMORE      PTCLDY    73  64  73 E9        30.20S                  
ANNAPOLIS      MOCLDY    72  67  84 E6        30.20F                  
ANDREWS AFB    CLOUDY    70  70 100 NE7       30.20S                  
PHILADELPHIA   PTCLDY    70  54  56 NE7       30.25S                  
HENDERSON NC   PTCLDY    68  65  89 S6        30.20S                  
GREENSBORO     CLEAR     68  65  90 CALM      30.18F                  
ROCKY MOUNT    PTCLDY    69  64  84 CALM      30.21S                  
$$

VAZ100-290900-
MARINE
  
STATION/POSITION TIME  TEMP    WIND        PRES    WAVE   SWELL
                       AIR SEA DIR/SP/G            HT/PER HT/PER
                 (UTC) (F)     (DEG/KT/KT) (MB)    (FT/S) (FT/S)
BRANDYWINE LGT   0712   69 68  190/  2/  4 1023.6R
CAPE MAY NJ      0700      70                N/A
LEWES DE         0712   69 62  210/  4/  6 1022.9F
15NM E FENWICK I 0750   64 63              1023.0F   3/ 8
OCEAN-CITY-INLET 0712   62 63  200/  5/  8 1023.0F
WACHAPREAGUE VA  0700      74                N/A
THOMAS POINT MD  0800   71 71  100/  8/ 10 1023.5R
GOOSES REEF MD   0800   72 71  130/  4/  6 1023.5F   1/ 3
COVE POINT MD    0712   70     160/  7/  8 1023.2F
SOLOMONS ISLAND  0712      71                N/A
BISHOPS HEAD MD  0700      75                N/A
PINEY POINT MD   0706          170/  4/  5   N/A
CAMBRIDGE MD     0700      75                N/A
LEWISETTA VA     0712   72 75              1022.0F
RAPPAHANNOCK LGT 0706          180/ 12/ 13 1023.4F
STINGRAY PT      0800   73 73  210/  6/  8 1022.5F   1/ 3
YORK RVR RNG VA  0712   73     220/ 11/ 13 1022.2F
YORKTOWN VA      0712   71 72  210/  6/  8 1022.5F
JAMESTOWN VA     0800   71 76  150/  4/  8 1021.7F
DOMINION TERM VA 0712   72     210/  8/ 10 1023.0F
KIPTOPEKE VA     0700      76  190/  6/  7   N/A
CHES BAY BRIDGE  0712   72 72  190/ 11/ 12 1022.6F
CAPE HENRY VA    0712   71     190/  7/ 10 1021.9F
CHESAPEAKE LGHT  0700   70     200/ 14/ 14 1023.9S
WILLOUBY STN VA  0712   72     200/ 10/ 14 1023.7F
CAPE HENRY BUOY  0728      62                N/A     3/ 8
1ST LANDING BUOY 0800      71              1022.7F
CAPE CHARLES BUO 0726      69                N/A     3/ 8   3/ 8
OFFSHORE WE BUOY 0711      66                N/A     4/ 8   3/ 8
64NM E OF VA BCH 0750   67 65   70/  4/  4 1023.3S   3/ 9   3/ 9
DUCK PIER NC     0700      55                N/A
44100 DUCK FRF   0724      67                N/A     3/ 8
44056 DUCK FRF   0711      60                N/A     3/ 9
OREGON INLET NC  0700      78                N/A
HATTERAS NC      0700   73 76  200/  1/  2 1022.7F
DIAMOND SHLS NC  0750   75 77  100/  2/  4 1022.9F   4/ 9   3/ 9
CAPE LOOKOUT NC  0800   72      70/  2/  3 1022.5F
$$

Return to Home page


Western Regional Climate Center, wrcc@dri.edu